Location: Innerarity Island Observatory
(30.3139°N, 87.4867°W)
Time: 11:35:02
(UTC-05:00)

FO-29 - Visible Passes

Search period start: 24 April 2018 00:00
Search period end: 04 May 2018 00:00
Orbit: 801 x 1321 km, 98.5° (Epoch: 23 April)

Date Brightness Start Highest point End Pass type
(mag) Time Alt. Az. Time Alt. Az. Time Alt. Az.
24 Apr 11.4 21:09:13 10° N 21:15:29 34° WNW 21:21:07 10° SW visible
25 Apr 9.7 20:13:43 10° NNE 20:20:52 89° ESE 20:27:05 10° SSW visible
25 Apr 12.6 22:01:53 10° NW 22:04:38 13° WNW 22:07:17 10° W visible
26 Apr 11.3 21:04:17 10° N 21:10:34 36° WNW 21:16:11 10° SW visible
27 Apr 9.6 20:08:53 10° NNE 20:15:54 83° ESE 20:22:00 10° S visible
27 Apr 12.5 21:56:43 10° NNW 21:59:46 13° WNW 22:02:40 10° W visible
28 Apr 11.1 20:59:22 10° N 21:05:38 38° WNW 21:11:14 10° SW visible
29 Apr 9.6 20:04:03 10° NNE 20:10:55 76° ESE 20:16:53 10° S visible
29 Apr 12.5 21:51:35 10° NNW 21:54:52 14° WNW 21:58:00 10° W visible
30 Apr 11.0 20:54:26 10° N 21:00:42 40° WNW 21:06:16 10° SW visible
01 May 9.5 19:59:11 10° NNE 20:05:55 70° ESE 20:11:46 10° S visible
01 May 12.4 21:46:28 10° NNW 21:49:58 15° WNW 21:53:17 10° W visible
02 May 10.8 20:49:30 10° N 20:55:45 43° WNW 21:01:17 10° SW visible
03 May 9.5 19:54:21 10° NNE 20:00:54 64° E 20:06:37 10° S visible
03 May 12.3 21:41:23 10° NNW 21:45:04 16° WNW 21:48:32 10° W visible
